[[{"header":{"parameterUnit":"m.s-1","parameterCategory":1,"la1":30.2991,"la2":30.254,"lo1":-89.0895,"lo2":-89.0444,"dy":0.0017,"dx":0.0017,"nx":28,"ny":28,"refTime":"2025-03-11T03:00:00:Z","depth":0,"parameterNumber":2,"parameterNumberName":"U-component_of_WINDS"},"data":[0,0,0,0,0,0,0,0,0,0,0,0,0,0,0,0,0,0,0,0,0,0,0,0,0,0,0,0,0,0,0,0,0,0,0,0,0,0,0,0,0,0,0,0,0,0,0,0,0,0,0,0,0,0,0,0,0,0,-1.2273,-1.2273,0,-1.2258,-1.2258,-1.2258,-1.2249,-1.2249,-1.2249,-1.2248,-1.2234,-1.2234,-1.2233,0,0,0,0,0,0,0,0,0,0,0,0,0,-1.2293,-1.2292,-1.2273,-1.2273,-1.2272,-1.2258,-1.2258,-1.2258,-1.2249,-1.2249,-1.2249,-1.2248,-1.2234,-1.2234,-1.2233,0,0,0,0,0,0,0,0,0,0,0,0,0,-1.2282,-1.2292,-1.2273,-1.2266,-1.2265,-1.2258,-1.2258,-1.2258,-1.2249,-1.2249,-1.2248,-1.2248,-1.2234,-1.2234,-1.2233,-1.2232,0,0,-1.2232,-1.2231,0,0,0,0,0,0,0,0,-1.2282,-1.2281,-1.2267,-1.2267,-1.2266,-1.2255,-1.226,-1.2249,-1.2249,-1.2255,-1.2248,-1.2248,-1.2241,-1.224,-1.2238,-1.2231,-1.2231,-1.2232,-1.2231,-1.2231,-1.2231,0,0,0,0,0,0,0,-1.2283,-1.2281,-1.2267,-1.2267,-1.2266,-1.2264,-1.2262,-1.2258,-1.2249,-1.2254,-1.2254,-1.2252,-1.2241,-1.2238,-1.2237,-1.223,-1.2232,-1.2231,-1.2231,-1.2231,-1.2221,-1.2221,0,0,0,0,0,0,-1.2285,-1.2282,-1.2268,-1.2267,-1.2274,-1.2264,-1.2262,-1.2259,-1.2249,-1.2247,-1.2252,-1.2252,-1.2239,-1.2238,-1.2237,-1.2234,-1.2231,-1.2231,-1.223,-1.2221,-1.2221,-1.2221,0,0,0,0,0,0,-1.2285,-1.2284,-1.2268,-1.2274,-1.2272,-1.2263,-1.226,-1.2258,-1.2256,-1.2247,-1.2245,-1.2251,-1.2239,-1.2237,-1.2233,-1.2233,-1.223,-1.223,-1.2221,-1.2221,-1.2221,-1.2229,0,0,0,0,0,0,-1.2286,-1.2284,-1.2283,-1.2274,-1.2272,-1.2265,-1.226,-1.2258,-1.2255,-1.2254,-1.2246,-1.2244,-1.2239,-1.2234,-1.2232,-1.2232,-1.223,-1.2221,-1.2221,-1.2221,-1.2228,-1.2229,-1.2229,0,0,0,0,0,-1.2287,-1.2286,-1.2283,-1.2282,-1.2271,-1.2265,-1.2263,-1.2257,-1.2255,-1.2254,-1.2249,-1.2244,-1.2233,-1.2233,-1.2232,-1.2232,-1.2221,-1.2221,-1.2221,-1.2228,-1.2229,-1.2229,0,0,0,0,0,0,-1.2296,-1.2285,-1.2282,-1.2278,-1.2273,-1.2263,-1.2262,-1.2258,-1.2253,-1.2253,-1.2245,-1.2243,-1.2239,-1.2235,-1.2235,-1.2229,-1.2227,-1.2227,-1.2232,-1.2233,-1.2233,-1.2234,-1.2229,0,0,0,0,0,-1.2297,-1.2293,-1.2284,-1.2282,-1.2279,-1.2271,-1.2268,-1.2264,-1.2258,-1.2255,-1.2249,-1.2243,-1.2238,-1.2236,-1.2231,-1.2228,-1.2225,-1.2227,-1.2227,-1.2228,-1.2228,-1.2225,-1.2225,-1.2222,-1.2222,-1.2222,0,0,-1.2301,-1.2294,-1.2292,-1.2284,-1.2279,-1.2274,-1.2269,-1.2265,-1.2262,-1.2255,-1.225,-1.2245,-1.2238,-1.2234,-1.2232,-1.2231,-1.2228,-1.2228,-1.2228,-1.2228,-1.2225,-1.2225,-1.2226,-1.2222,-1.2222,-1.2222,0,0,-1.2305,-1.23,-1.2297,-1.2292,-1.2284,-1.2279,-1.2278,-1.2269,-1.2266,-1.2261,-1.2255,-1.2251,-1.2243,-1.2238,-1.2234,-1.2236,-1.2231,-1.2234,-1.2237,-1.2235,-1.2235,-1.2235,-1.2235,-1.2235,-1.2234,-1.2234,-1.2234,0,-1.231,-1.2303,-1.2296,-1.2292,-1.2288,-1.2281,-1.2278,-1.2274,-1.2265,-1.2262,-1.2261,-1.225,-1.2245,-1.2239,-1.2239,-1.2237,-1.2236,-1.2235,-1.2236,-1.2236,-1.2236,-1.2236,-1.2236,-1.2235,-1.2235,-1.2234,-1.2234,0,-1.231,-1.2305,-1.2304,-1.2295,-1.2291,-1.2288,-1.228,-1.2277,-1.2273,-1.2267,-1.2262,-1.2255,-1.2249,-1.2247,-1.2243,-1.2241,-1.224,-1.2237,-1.2234,-1.2237,-1.2236,-1.2236,-1.2235,-1.2235,-1.2235,-1.2235,0,0,-1.2319,-1.2306,-1.2306,-1.2301,-1.2292,-1.2288,-1.2285,-1.2278,-1.2275,-1.2269,-1.2265,-1.2258,-1.2255,-1.2251,-1.2246,-1.2244,-1.2245,-1.2241,-1.2241,-1.2242,-1.2241,-1.2243,-1.2243,-1.2242,-1.2242,-1.2242,-1.2242,0,-1.2321,-1.2314,-1.2307,-1.2302,-1.2297,-1.229,-1.2287,-1.228,-1.2275,-1.2271,-1.2265,-1.226,-1.2256,-1.2254,-1.2251,-1.2245,-1.2244,-1.2245,-1.2238,-1.2238,-1.224,-1.2243,-1.2246,-1.2246,-1.2242,-1.2242,-1.2241,0,-1.2323,-1.2317,-1.2311,-1.2302,-1.23,-1.2297,-1.2289,-1.2285,-1.2278,-1.2274,-1.2269,-1.2264,-1.2259,-1.2257,-1.225,-1.225,-1.2247,-1.2243,-1.2243,-1.2242,-1.224,-1.2242,-1.2246,-1.2246,-1.2241,-1.2241,-1.2241,0,-1.233,-1.232,-1.2315,-1.2312,-1.2301,-1.2299,-1.2294,-1.2287,-1.2283,-1.2277,-1.2274,-1.2267,-1.2264,-1.2258,-1.2251,-1.225,-1.2245,-1.2242,-1.2242,-1.2242,-1.2241,-1.2241,-1.2244,-1.2239,-1.2239,-1.2239,-1.2239,0,-1.2333,-1.2329,-1.2318,-1.2315,-1.2311,-1.2303,-1.2299,-1.2294,-1.2287,-1.2283,-1.2277,-1.2273,-1.2264,-1.2259,-1.2253,-1.2248,-1.2247,-1.2243,-1.2242,-1.2244,-1.2244,-1.2241,-1.2241,-1.2239,-1.2239,-1.2239,-1.2239,0,-1.234,-1.2332,-1.2326,-1.2316,-1.2313,-1.2311,-1.2302,-1.2299,-1.2293,-1.2288,-1.2286,-1.2277,-1.2271,-1.2263,-1.2254,-1.2251,-1.2246,-1.2244,-1.2248,-1.2247,-1.2247,-1.2247,-1.2248,-1.2247,-1.2243,-1.2243,-1.2243,0,-1.2342,-1.2339,-1.2328,-1.2325,-1.232,-1.2315,-1.2311,-1.2303,-1.2299,-1.229,-1.2287,-1.228,-1.2274,-1.2265,-1.2257,-1.225,-1.2248,-1.2249,-1.2247,-1.2249,-1.2247,-1.2248,-1.2247,-1.2249,-1.2249,-1.2249,-1.2249,0,-1.2346,-1.2343,-1.2337,-1.2329,-1.2324,-1.2318,-1.2312,-1.231,-1.23,-1.2296,-1.2289,-1.2285,-1.2275,-1.2269,-1.2261,-1.2256,-1.2251,-1.225,-1.2249,-1.2251,-1.2254,-1.2252,-1.2249,-1.225,-1.225,-1.225,-1.225,-1.225,-1.2351,-1.2347,-1.2339,-1.2333,-1.2327,-1.2321,-1.2317,-1.2311,-1.2305,-1.2297,-1.2293,-1.2286,-1.2278,-1.2267,-1.2262,-1.2257,-1.2255,-1.2254,-1.2254,-1.2254,-1.2254,-1.2255,-1.2255,-1.2255,-1.2255,-1.2255,-1.2255,0,-1.2354,-1.2349,-1.2343,-1.2334,-1.2329,-1.2324,-1.2317,-1.2313,-1.2307,-1.23,-1.2294,-1.2286,-1.2279,-1.2271,-1.2264,-1.2261,-1.2259,-1.2259,-1.2259,-1.2258,-1.2256,-1.2257,-1.2261,-1.2261,-1.2261,-1.2261,-1.2261,-1.2261,-1.2356,-1.235,-1.2345,-1.2337,-1.2331,-1.2324,-1.232,-1.2314,-1.2309,-1.23,-1.2294,-1.2289,-1.2282,-1.2273,-1.2267,-1.2264,-1.2262,-1.2263,-1.226,-1.2259,-1.2258,-1.2258,-1.2259,-1.2263,-1.2263,-1.2262,-1.2262,-1.2262]},{"header":{"parameterUnit":"m.s-1","parameterCategory":1,"la1":30.2991,"la2":30.254,"lo1":-89.0895,"lo2":-89.0444,"dy":0.0017,"dx":0.0017,"nx":28,"ny":28,"refTime":"2025-03-11T03:00:00:Z","depth":0,"parameterNumber":3,"parameterNumberName":"V-component_of_WINDS"},"data":[0,0,0,0,0,0,0,0,0,0,0,0,0,0,0,0,0,0,0,0,0,0,0,0,0,0,0,0,0,0,0,0,0,0,0,0,0,0,0,0,0,0,0,0,0,0,0,0,0,0,0,0,0,0,0,0,0,0,3.323,3.323,0,3.3292,3.3293,3.3293,3.3282,3.3281,3.328,3.3279,3.3341,3.3344,3.3346,0,0,0,0,0,0,0,0,0,0,0,0,0,3.31,3.3103,3.323,3.323,3.3231,3.3292,3.3293,3.3294,3.3283,3.3281,3.328,3.3279,3.334,3.3343,3.3347,0,0,0,0,0,0,0,0,0,0,0,0,0,3.3159,3.3104,3.3229,3.3233,3.3234,3.3292,3.3293,3.3294,3.3283,3.3281,3.328,3.3278,3.3339,3.3343,3.3347,3.3404,0,0,3.3359,3.3361,0,0,0,0,0,0,0,0,3.3156,3.3164,3.3232,3.3233,3.3234,3.3278,3.327,3.3331,3.3283,3.3264,3.3279,3.3277,3.3321,3.3327,3.3342,3.3407,3.341,3.336,3.3362,3.3364,3.3365,0,0,0,0,0,0,0,3.3152,3.3161,3.3254,3.3233,3.3234,3.3231,3.3238,3.3281,3.3301,3.3266,3.3265,3.3273,3.3322,3.3338,3.3343,3.3411,3.3359,3.3363,3.3365,3.3367,3.3529,3.3531,0,0,0,0,0,0,3.3147,3.3158,3.3252,3.3256,3.319,3.3235,3.3242,3.3265,3.3301,3.3304,3.3274,3.3272,3.3332,3.3339,3.3345,3.3417,3.3364,3.3367,3.337,3.3527,3.353,3.3532,0,0,0,0,0,0,3.3144,3.3155,3.325,3.3207,3.3219,3.3239,3.3265,3.3267,3.3284,3.3307,3.331,3.3287,3.3331,3.334,3.3391,3.3419,3.3369,3.3373,3.3525,3.3528,3.3531,3.3559,0,0,0,0,0,0,3.314,3.3154,3.3176,3.3207,3.3221,3.3294,3.3267,3.327,3.3291,3.3289,3.332,3.3324,3.333,3.3385,3.3395,3.3423,3.3376,3.3523,3.3526,3.353,3.3555,3.3562,3.3568,0,0,0,0,0,3.3136,3.3181,3.3177,3.3189,3.3249,3.3296,3.3303,3.331,3.3293,3.3316,3.3331,3.3323,3.3414,3.339,3.3401,3.3431,3.3521,3.3525,3.3529,3.3553,3.3561,3.3568,0,0,0,0,0,0,3.3151,3.3185,3.3181,3.3238,3.3264,3.3294,3.3322,3.3319,3.335,3.3346,3.3353,3.336,3.3412,3.3427,3.3399,3.349,3.3465,3.3472,3.3479,3.3487,3.3493,3.3489,3.3379,0,0,0,0,0,3.3161,3.3197,3.3224,3.3271,3.3285,3.3301,3.3322,3.3325,3.3352,3.3363,3.3382,3.3408,3.3443,3.3465,3.3498,3.3557,3.3565,3.3584,3.359,3.3595,3.3601,3.3635,3.3645,3.3546,3.3546,3.3546,0,0,3.3182,3.3205,3.3227,3.3275,3.3296,3.3333,3.3311,3.335,3.3377,3.3369,3.3419,3.3434,3.3463,3.3519,3.3545,3.3533,3.363,3.3601,3.3604,3.3608,3.3641,3.365,3.3658,3.3549,3.3548,3.3548,0,0,3.3239,3.326,3.3302,3.3324,3.3357,3.3368,3.3378,3.3409,3.3419,3.3469,3.3464,3.3497,3.3556,3.3578,3.3597,3.3665,3.366,3.3676,3.3709,3.3742,3.375,3.3757,3.3783,3.3792,3.3681,3.3682,3.3682,0,3.3261,3.3317,3.3324,3.3365,3.3387,3.3383,3.3427,3.3447,3.3488,3.3503,3.349,3.3566,3.3585,3.3647,3.3664,3.3679,3.3692,3.3672,3.3749,3.3756,3.3762,3.3787,3.3797,3.3683,3.3683,3.3683,3.3683,0,3.3343,3.3382,3.3412,3.3454,3.3479,3.3521,3.3535,3.356,3.3562,3.3575,3.3627,3.3651,3.369,3.3704,3.3705,3.3767,3.3759,3.3747,3.3722,3.3773,3.3797,3.3807,3.3686,3.3685,3.3685,3.3684,0,0,3.3411,3.3458,3.3469,3.3489,3.3525,3.3555,3.3597,3.3637,3.3658,3.3687,3.3724,3.3775,3.3765,3.3786,3.379,3.3819,3.3874,3.3804,3.3805,3.3818,3.3946,3.3956,3.3967,3.3871,3.3873,3.3874,3.3944,0,3.3473,3.3548,3.3557,3.3625,3.3662,3.3659,3.3696,3.3722,3.3736,3.3769,3.3783,3.382,3.3803,3.3817,3.3845,3.3862,3.39,3.3856,3.3905,3.3907,3.3899,3.3979,3.3989,3.4054,3.3953,3.3955,3.3956,0,3.3554,3.3588,3.3659,3.3693,3.3708,3.3742,3.378,3.3811,3.3842,3.3849,3.3875,3.3876,3.392,3.3893,3.3955,3.3925,3.3946,3.3957,3.396,3.3965,3.3935,3.3988,3.4074,3.4085,3.397,3.3969,3.3968,0,3.3599,3.3661,3.3713,3.3729,3.3769,3.3793,3.3811,3.3839,3.3863,3.3896,3.3912,3.3949,3.397,3.3998,3.401,3.3989,3.4072,3.4045,3.408,3.408,3.4098,3.4097,3.4191,3.4109,3.4109,3.4109,3.4109,0,3.3668,3.3712,3.3734,3.3765,3.3815,3.3825,3.3875,3.3891,3.3917,3.3952,3.3951,3.3984,3.3997,3.4032,3.4041,3.4092,3.4101,3.4109,3.4111,3.411,3.4109,3.4124,3.412,3.4112,3.4111,3.4111,3.411,0,3.3726,3.3742,3.3798,3.3832,3.3842,3.3877,3.3906,3.3937,3.3951,3.3996,3.4007,3.4028,3.407,3.4084,3.4133,3.4139,3.42,3.4197,3.419,3.419,3.4225,3.4222,3.4332,3.4348,3.4255,3.4256,3.4257,0,3.3769,3.3803,3.3842,3.3866,3.3885,3.3923,3.3948,3.396,3.3986,3.4025,3.4051,3.4093,3.4127,3.4194,3.4214,3.4252,3.4252,3.4288,3.4257,3.4256,3.4254,3.4252,3.4257,3.4293,3.4294,3.4295,3.4296,0,3.3845,3.3852,3.3888,3.3928,3.3958,3.399,3.402,3.404,3.4056,3.4085,3.4129,3.4156,3.4208,3.425,3.429,3.4308,3.4305,3.4305,3.4316,3.4315,3.4311,3.4315,3.4207,3.4303,3.4302,3.4301,3.4301,3.4301,3.3898,3.3929,3.3962,3.4003,3.4027,3.4057,3.4088,3.4107,3.4143,3.4188,3.4192,3.424,3.4271,3.4325,3.4345,3.4382,3.4372,3.4387,3.4391,3.4394,3.4398,3.4304,3.4389,3.4389,3.4389,3.4389,3.4389,0,3.3975,3.3996,3.4034,3.4078,3.4111,3.4106,3.414,3.4168,3.421,3.424,3.4274,3.4325,3.4366,3.439,3.4432,3.4457,3.4457,3.4468,3.4466,3.4471,3.4404,3.4391,3.4467,3.4467,3.4467,3.4467,3.4467,3.4467,3.4019,3.4072,3.4084,3.415,3.4171,3.4218,3.4238,3.4266,3.429,3.4347,3.4382,3.4398,3.4426,3.447,3.4508,3.4514,3.4529,3.4541,3.4547,3.4483,3.4475,3.4468,3.4456,3.4544,3.4545,3.4611,3.4612,3.4612]}]]